Regional Weather Roundup
Issued by NWS

Home | Current Version | Previous Version | Graphics & Text | Print | Product List | Glossary On
Versions: 1 2 3 4 5 6 7 8 9 10 11 12 13 14 15 16 17 18 19 20 21 22 23 24 25 26 27 28 29 30 31 32 33 34 35 36 37 38 39 40 41 42 43 44 45 46 47 48
000
ASUS45 KBOU 271007
RWRCO

WEATHER ROUNDUP FOR COLORADO
NATIONAL WEATHER SERVICE DENVER/BOULDER CO
300 AM MST FRI FEB 27 2015

NOTE: "FAIR" INDICATES FEW OR NO CLOUDS BELOW 12000 FEET WITH NO
SIGNIFICANT WEATHER AND/OR OBSTRUCTIONS TO VISIBILITY.

COZ001>005-013-030-031-271100-
...NORTHWEST COLORADO...

CITY           SKY/WX    TMP DP  RH WIND       PRES   REMARKS
CRAIG          CLOUDY    13   8  81 W6        29.87S WCI   4
HAYDEN         CLOUDY    14   9  79 SW5       29.84S WCI   6
MEEKER         FLURRIES  20  17  88 CALM      29.83F
MOUNT WERNER   NOT AVBL
STEAMBOAT SPGS NOT AVBL
WALDEN         MOCLDY    -8 -13  77 CALM      29.79F
$$

COZ006>008-011-271100-
...WEST CENTRAL VALLEYS...

CITY           SKY/WX    TMP DP  RH WIND       PRES   REMARKS
GRAND JUNCTION LGT SNOW  30  28  92 SW3       29.83S FOG
MONTROSE       CLOUDY    26  21  81 SE6       29.84F WCI  19
EAGLE          CLOUDY    25  25 100 W5        29.81S WCI  19
RIFLE          LGT SNOW  29  26  89 W8        29.82S FOG     WCI  21
DELTA          FLURRIES  32  28  86 CALM      29.84F
NUCLA          CLOUDY    28  27  93 E5        29.86F WCI  23
$$

COZ017>023-064>068-271100-
...SOUTHWEST COLORADO...

CITY           SKY/WX    TMP DP  RH WIND       PRES   REMARKS
DURANGO        MOCLDY    24  24 100 SW6       29.80F WCI  17
CORTEZ         CLOUDY    28  27  96 E5        29.84S WCI  23
PAGOSA SPRINGS FLURRIES  26  26  99 SW6       29.79F WCI  20
TELLURIDE      MOCLDY    19  18  96 CALM      29.79S
WOLF CREEK PAS HVY SNOW  10  10 100 SW20G26   29.75S VSB 1/4 WCI  -8
$$

COZ009-010-012-014-032>034-037-058>063-271100-
...CENTRAL COLORADO...

CITY           SKY/WX    TMP DP  RH WIND       PRES   REMARKS
ASPEN          LGT SNOW  19  16  88 S6        29.75F FOG     WCI  11
BUENA VISTA    LGT SNOW   3  -1  83 E6        29.89F WCI  -8
COPPER MTN     NOT AVBL
BERTHOUD PASS  HAZE       0  -6  78 NW22      29.63F VSB 1/4 WCI -23
COTTONWOOD PAS LGT SNOW   1  -6  71 CALM      29.76F
GUNNISON       MOCLDY    16  10  79 CALM      29.81F
KREMMLING      CLOUDY    14   9  79 SE6       29.82F WCI   5
LEADVILLE      LGT SNOW  -4  -8  83 CALM      29.74F FOG
MONARCH PASS   CLOUDY     9   3  78 MISG      29.78F
SALIDA         CLOUDY     7   2  80 SE9       29.98F WCI  -7
SUNLIGHT       HVY SNOW  16  14  93 CALM      29.71S VSB 1/4
WILKERSON PASS MOCLDY     1  -4  78 W8        29.70S WCI -12
$$

COZ069>075-271100-
...SAN LUIS VALLEY/SANGRE DE CRISTO MOUNTAINS...

CITY           SKY/WX    TMP DP  RH WIND       PRES   REMARKS
ALAMOSA        LGT SNOW  18  15  88 S14       29.79F VSB 3/4 WCI   4
LA VETA PASS   FLURRIES   0  -6  78 NE5       29.74F WCI -10
SAGUACHE       LGT SNOW  19  18  93 S5        29.81S WCI  13
$$

COZ035-036-038>040-271100-
...NORTHERN COLORADO FRONT RANGE...

CITY           SKY/WX    TMP DP  RH WIND       PRES   REMARKS
DENVER INTL AP FLURRIES   1  -4  79 S10       30.03F WCI -15
DMNS CITY PARK   N/A      8   6  92 MISG      30.04F
AURORA         MOCLDY     6  -1  73 S5        30.02F WCI  -3
FRONT RANGE AP NOT AVBL
ERIE MUNI ARPT NOT AVBL
BOULDER MUN AP NOT AVBL
CENTENNIAL     MOCLDY     2  -2  83 S6        30.00F WCI  -9
BROOMFIELD     LGT SNOW   9   5  85 CALM      30.01F
FORT COLLINS   CLEAR     10   7  85 N8        30.06F WCI  -1
LONGMONT       NOT AVBL
$$

COZ041-046-047-076>085-087-088-271100-
...PIKES PEAK/PALMER DIVIDE AND SOUTHERN FOOTHILLS...

CITY           SKY/WX    TMP DP  RH WIND       PRES   REMARKS
COLO. SPRINGS  LGT SNOW   7   4  87 SE12      30.02F FOG     WCI  -8
A. F. ACADEMY  CLOUDY     6   1  81 SE14      29.97F WCI -12
ELLICOTT       NOT AVBL
FALCON         NOT AVBL
FORT CARSON    LGT SNOW   7   4  87 S3        30.04F
LIMON          CLOUDY     7   4  87 SE16      30.09F WCI -11
MONUMENT HILL  MOCLDY     1   0  92 S15G21    29.91F FOG     WCI -18
TRINIDAD       LGT SNOW   9   5  84 NW9       30.03F FOG     WCI  -4
$$

COZ042>045-048>051-090-091-271100-
...NORTHEAST COLORADO...

CITY           SKY/WX    TMP DP  RH WIND       PRES   REMARKS
GREELEY ARPT   PTCLDY    12   3  67 SE14      30.07F WCI  -3
AKRON          LGT SNOW   7   5  91 E15       30.14F FOG     WCI -10
BURLINGTON     LGT SNOW  11   7  84 SE17      30.22S FOG     WCI  -6
WRAY           CLOUDY    10   3  72 E14       30.28F WCI  -5
STERLING       NOT AVBL
HOLYOKE        NOT AVBL
FORT MORGAN    FLURRIES  10   7  86 SE12      30.14F WCI  -4
$$

COZ086-089-092>099-271100-
...SOUTHEAST COLORADO...

CITY           SKY/WX    TMP DP  RH WIND       PRES   REMARKS
PUEBLO         LGT SNOW  12   9  87 E7        30.11F FOG     WCI   1
LA JUNTA       LGT SNOW  14  10  84 E20       30.16F VSB 1   WCI  -3
LAMAR          LGT SNOW  14  11  87 E13       30.22F FOG     WCI   0
SPRINGFIELD      N/A     11   8  88 SE17      30.18F WCI  -6
$$


USA.gov is the U.S. government's official web portal to all federal, state and local government web resources and services.